TimeAKST,TemperatureF,Dew PointF,Humidity,Sea Level PressureIn,VisibilityMPH,Wind Direction,Wind SpeedMPH,Gust SpeedMPH,PrecipitationIn,Events,Conditions,WindDirDegrees,DateUTC
12:53 AM,28.0,17.1,63,30.34,10.0,WNW,6.9,-,N/A,,Clear,300,2013-03-05 09:53:00
1:53 AM,27.0,17.1,66,30.33,10.0,Calm,Calm,-,N/A,,Clear,0,2013-03-05 10:53:00
3:53 AM,28.0,15.1,58,30.29,10.0,Calm,Calm,-,N/A,,Clear,0,2013-03-05 12:53:00
4:53 AM,28.0,10.9,49,30.26,10.0,ENE,6.9,-,N/A,,Clear,60,2013-03-05 13:53:00
5:53 AM,27.0,9.0,47,30.26,10.0,NE,4.6,-,N/A,,Clear,50,2013-03-05 14:53:00
6:53 AM,30.0,6.1,36,30.24,9.0,NE,12.7,20.7,N/A,,Clear,50,2013-03-05 15:53:00
7:53 AM,28.9,6.1,38,30.22,10.0,NE,12.7,-,N/A,,Clear,40,2013-03-05 16:53:00
8:53 AM,30.0,6.1,36,30.21,10.0,NE,13.8,-,N/A,,Clear,40,2013-03-05 17:53:00
9:53 AM,30.9,5.0,33,30.18,10.0,NE,15.0,21.9,N/A,,Clear,40,2013-03-05 18:53:00
10:32 AM,33.8,6.8,32,30.16,3.0,NE,15.0,31.1,N/A,,Haze,40,2013-03-05 19:32:00
10:53 AM,34.0,6.1,31,30.16,5.0,NE,15.0,28.8,N/A,,Haze,50,2013-03-05 19:53:00
11:40 AM,35.6,6.8,30,30.14,2.0,NE,23.0,34.5,N/A,,Haze,40,2013-03-05 20:40:00
11:49 AM,35.6,6.8,30,30.14,5.0,NE,20.7,29.9,N/A,,Haze,50,2013-03-05 20:49:00
11:53 AM,36.0,6.1,29,30.14,3.0,ENE,19.6,31.1,N/A,,Haze,60,2013-03-05 20:53:00
12:04 PM,35.6,6.8,30,30.13,1.2,NE,25.3,35.7,N/A,,Haze,40,2013-03-05 21:04:00
12:09 PM,35.6,6.8,30,30.13,3.0,NE,25.3,34.5,N/A,,Haze,40,2013-03-05 21:09:00
12:53 PM,37.0,6.1,28,30.11,9.0,NE,21.9,31.1,N/A,,Clear,50,2013-03-05 21:53:00
1:53 PM,39.0,7.0,27,30.09,10.0,ENE,21.9,29.9,N/A,,Clear,60,2013-03-05 22:53:00
2:53 PM,39.0,7.0,27,30.06,10.0,ENE,13.8,28.8,N/A,,Clear,70,2013-03-05 23:53:00
3:53 PM,39.0,8.1,28,30.05,10.0,NE,17.3,28.8,N/A,,Clear,50,2013-03-06 00:53:00
4:53 PM,37.0,10.0,33,30.03,10.0,NE,9.2,-,N/A,,Clear,40,2013-03-06 01:53:00
5:53 PM,36.0,9.0,33,30.03,10.0,NNE,9.2,-,N/A,,Clear,30,2013-03-06 02:53:00
6:53 PM,33.1,14.0,46,30.03,10.0,Calm,Calm,-,N/A,,Clear,0,2013-03-06 03:53:00
7:53 PM,33.1,12.0,42,30.02,10.0,Calm,Calm,-,N/A,,Clear,0,2013-03-06 04:53:00
8:53 PM,30.9,16.0,54,30.01,10.0,WNW,3.5,-,N/A,,Clear,300,2013-03-06 05:53:00
9:53 PM,30.0,16.0,56,30.01,10.0,Calm,Calm,-,N/A,,Clear,0,2013-03-06 06:53:00
10:53 PM,33.1,10.0,38,30.00,10.0,Variable,4.6,16.1,N/A,,Clear,0,2013-03-06 07:53:00
11:53 PM,30.0,16.0,56,29.99,10.0,Calm,Calm,-,N/A,,Clear,0,2013-03-06 08:53:00